Regional Weather Roundup
Issued by NWS

Home | Current Version | Previous Version | Graphics & Text | Print | Product List | Glossary On
Versions: 1 2 3 4 5 6 7 8 9 10 11 12 13 14 15 16 17 18 19 20 21 22 23 24 25 26 27 28 29 30 31 32 33 34 35 36 37 38 39 40 41 42 43 44 45 46 47 48 49 50
000
ASUS43 KIND 220109
RWRIN

WEATHER ROUNDUP FOR INDIANA
NATIONAL WEATHER SERVICE INDIANAPOLIS IN
900 PM EDT TUE MAR 21 2017

NOTE: "FAIR" INDICATES FEW OR NO CLOUDS BELOW 12,000 FEET WITH NO
SIGNIFICANT WEATHER AND/OR OBSTRUCTIONS TO VISIBILITY.

* - STATION DOES NOT REPORT WEATHER SUCH AS PRECIPITATION OR FOG.

+ - STATION NOT QUALITY CONTROLLED BY THE NATIONAL WEATHER SERVICE.
    USE DATA WITH CAUTION...ESPECIALLY DEWPOINT AND RELATIVE
    HUMIDITY OBSERVATIONS.

INZ001>003-010>013-019-020-220200-
NORTHWEST INDIANA

CITY           SKY/WX    TMP DP  RH WIND       PRES   REMARKS
GARY /AIRPORT/ PTCLDY    36  27  69 NE9       30.30R
KNOX *+        CLEAR     34   9  35 N10       30.26R WCI  26
LA PORTE +     CLEAR     33  24  68 N9        30.27R WCI  25
MICHIGAN CITY+ CLEAR     34  27  75 N6        30.28R WCI  29
MONTICELLO +   CLOUDY    38  26  62 N9        30.24R
RENSSELAER +     N/A     36  28  75 N9        30.26R
VALPARAISO     CLEAR     34  25  69 N7        30.27R WCI  28

$$

LMZ046-743>745-220200-
SOUTHERN LAKE MICHIGAN

STATION/POSITION TIME  TEMP    WIND        PRES    WAVE
                       AIR SEA DIR/SP/G            HT
                 (UTC) (F)     (DEG/KT/KT) (MB)    (FT)
BURNS HARBOR     0040   36      40/ 14/ 16 1025.7R
MICHIGAN CITY    0040   36      20/ 17/ 19   N/A

$$

INZ004-005-014>016-021>024-220200-
NORTH CENTRAL INDIANA

CITY           SKY/WX    TMP DP  RH WIND       PRES   REMARKS
ELKHART        CLEAR     36  19  51 N6        30.24R
GOSHEN         CLEAR     36  20  52 N14G22    30.23R
LOGANSPORT +   CLOUDY    37  28  70 N9        30.25R
PERU/GRISSOM   CLOUDY    39  26  59 N12       30.21R
ROCHESTER +    CLEAR     37  27  65 N8        30.25R
SOUTH BEND     CLEAR     33  21  61 N10       30.26R WCI  25
WARSAW +       CLEAR     36  25  64 NW7       30.23R

$$

INZ006>009-017-018-025>027-220200-
NORTHEAST INDIANA

CITY           SKY/WX    TMP DP  RH WIND       PRES   REMARKS
ANGOLA *+      CLEAR     37  25  60 NW15      30.19R
AUBURN +       CLEAR     37  21  52 NW8       30.20R
FORT WAYNE     CLOUDY    39  24  55 NW15      30.20R
HUNTINGTON +   CLOUDY    37  25  61 NW8       30.21R
KENDALLVILLE + CLEAR     37  19  48 NW14G21   30.19R

$$

INZ028-029-035-036-043>045-051>053-220200-
WEST CENTRAL INDIANA

CITY           SKY/WX    TMP DP  RH WIND       PRES   REMARKS
CRAWFORDSVL +  CLOUDY    44  36  73 N6        30.20S
GREENCASTLE +  CLOUDY    46  32  57 N13       30.20S
LAFAYETTE      MOCLDY    40  29  64 N10       30.23R
TERRE HAUTE    CLOUDY    48  33  56 N12       30.20S

$$

INZ030>032-037>040-046>048-054>057-064-065-220200-
CENTRAL INDIANA

CITY           SKY/WX    TMP DP  RH WIND       PRES   REMARKS
CP ATTERBURY + CLOUDY    48  34  57 N8G16     30.18S
COLUMBUS       CLOUDY    48  36  61 N12       30.19R
FISHERS *+     CLOUDY    45  34  65 N7        30.20
FRANKFORT +    CLOUDY    44  31  59 N10       30.23R
GREENWOOD *+   CLOUDY    47  36  64 N5        30.19R
INDIANAPOLIS   CLOUDY    47  34  60 N10       30.19R
-EAGLE CREEK   CLOUDY    47  34  60 N7        30.19R
KOKOMO +       CLOUDY    41  27  57 N14       30.23R
MARION +       PTCLDY   N/A N/A N/A N9G17     30.21R
MT COMFORT *+  MOCLDY    45  34  65 N10       30.19R
SHELBYVILLE    CLOUDY    47  36  65 NW8       30.17R
ZIONSVILLE +   CLOUDY    43  32  64 N12       30.21R

$$

INZ033-034-041-042-049-050-058-059-220200-
EAST CENTRAL INDIANA

CITY           SKY/WX    TMP DP  RH WIND       PRES   REMARKS
MUNCIE         PTCLDY    43  29  57 N12       30.19R
RICHMOND +     CLOUDY    43  28  56 N16       30.15S

$$

INZ060-061-067>069-081>083-085>088-220200-
SOUTHWEST INDIANA

CITY           SKY/WX    TMP DP  RH WIND       PRES   REMARKS
EVANSVILLE     MOCLDY    56  30  37 N12       30.15R
HUNTINGBURG *+ MOCLDY    55  32  41 N7        30.14R
WASHINGTON +   CLOUDY    52  33  47 CALM      30.17R

$$

INZ062-063-066-070>080-084-089>092-220200-
SOUTH CENTRAL AND SOUTHEAST INDIANA

CITY           SKY/WX    TMP DP  RH WIND       PRES   REMARKS
BEDFORD +      CLOUDY    52  30  43 N6        30.16
BLOOMINGTON    PTCLDY    50  29  44 N14       30.17R
MADISON *+     PTCLDY    52  32  46 N5        30.16S
NORTH VERNON + MOCLDY    52  36  54 N13G20    30.16R
SEYMOUR +      CLOUDY    52  36  54 N9        30.16R

$$





USA.gov is the U.S. government's official web portal to all federal, state and local government web resources and services.